Weather History for KSVC - January, 2013

Change the Weather History Date:

Wednesday, January 9, 2013

  Actual Average (KDMN) Record (KDMN)
Temperature  
Mean Temperature 44 °F 41 °F  
Max Temperature 59 °F 56 °F 74 °F (1948)
Min Temperature 28 °F 26 °F 1 °F (1967)
Degree Days  
Heating Degree Days 22    
Moisture  
Dew Point 6 °F    
Average Humidity 22    
Maximum Humidity 43    
Minimum Humidity 12    
Precipitation  
Precipitation 0.00 in 0.02 in 0.58 in (2001)
Month to date precipitation 0.16  
Year to date precipitation 0.16  
Sea Level Pressure  
Sea Level Pressure 30.20 in    
Wind  
Wind Speed 10 mph (WNW)    
Max Wind Speed 22 mph    
Max Gust Speed 28 mph    
Visibility 10 miles    
Events      
T = Trace of Precipitation, MM = Missing Value Source: NWS Daily Summary

Daily Weather History Graph

Daily Weather History Graph

Search for Another Location

Airport or City:

Trip Planner

Search our weather history database for the weather conditions in past years. The results will help you decide how hot, cold, wet, or windy it might be!

Date:

Astronomy

Jan. 09, 2013 Rise Set
Actual Time 7:15 AM MST 5:24 PM MST
Civil Twilight 6:48 AM MST 5:51 PM MST
Nautical Twilight 6:18 AM MST 6:21 PM MST
Astronomical Twilight 5:48 AM MST 6:51 PM MST
Moon 4:57 AM MST (1/9) 3:29 PM MST (1/9)
Length of Visible Light 11h 02m
Length of Day
10h 09m
Waning Crescent, 6% of the Moon is Illuminated
Jan 9
Waning Crescent
Jan 11
New
Jan 18
First Quarter
Jan 26
Full
Feb 3
Last Quarter

Hourly Weather History & Observations

Time (MST) Temp. Windchill Dew Point Humidity Pressure Visibility Wind Dir Wind Speed Gust Speed Precip Events Conditions
12:35 AM 37.4 °F 30.8 °F 14.0 °F 38% 30.12 in 10.0 mi NNW 9.2 mph - N/A   Clear
12:55 AM 39.2 °F 33.0 °F 12.2 °F 33% 30.11 in 10.0 mi North 9.2 mph - N/A   Clear
1:15 AM 35.6 °F 31.7 °F 12.2 °F 38% 30.12 in 10.0 mi WSW 4.6 mph - N/A   Clear
1:35 AM 37.4 °F 33.8 °F 10.4 °F 33% 30.12 in 10.0 mi SE 4.6 mph - N/A   Clear
1:55 AM 41.0 °F 34.7 °F 6.8 °F 24% 30.13 in 10.0 mi NE 10.4 mph - N/A   Clear
2:15 AM 41.0 °F 33.5 °F 1.4 °F 19% 30.13 in 10.0 mi NE 13.8 mph 19.6 mph N/A   Clear
2:35 AM 46.4 °F 39.5 °F -0.4 °F 14% 30.14 in 10.0 mi NE 17.3 mph 23.0 mph N/A   Clear
2:55 AM 46.4 °F 39.0 °F -0.4 °F 14% 30.15 in 10.0 mi NE 19.6 mph 25.3 mph N/A   Clear
3:15 AM 46.4 °F 38.5 °F 1.4 °F 16% 30.15 in 10.0 mi NE 21.9 mph 27.6 mph N/A   Clear
3:35 AM 46.4 °F 38.7 °F 1.4 °F 16% 30.16 in 10.0 mi NE 20.7 mph 26.5 mph N/A   Clear
3:55 AM 46.4 °F 39.8 °F 1.4 °F 16% 30.17 in 10.0 mi NE 16.1 mph - N/A   Clear
4:15 AM 46.4 °F 38.7 °F -0.4 °F 14% 30.17 in 10.0 mi NE 20.7 mph - N/A   Clear
4:35 AM 44.6 °F 37.8 °F -0.4 °F 15% 30.18 in 10.0 mi NNE 15.0 mph 24.2 mph N/A   Clear
4:55 AM 46.4 °F 39.0 °F -0.4 °F 14% 30.17 in 10.0 mi NE 19.6 mph 25.3 mph N/A   Clear
5:15 AM 46.4 °F 40.4 °F -0.4 °F 14% 30.18 in 10.0 mi NNE 13.8 mph 23.0 mph N/A   Clear
5:35 AM 41.0 °F 35.8 °F 1.4 °F 19% 30.19 in 10.0 mi WSW 8.1 mph - N/A   Clear
5:55 AM 42.8 °F 37.5 °F 1.4 °F 18% 30.20 in 10.0 mi SSE 9.2 mph - N/A   Clear
6:15 AM 42.8 °F 37.5 °F 3.2 °F 19% 30.21 in 10.0 mi WSW 9.2 mph - N/A   Clear
6:35 AM 46.4 °F - 3.2 °F 17% 30.22 in 10.0 mi Calm Calm - N/A   Clear
6:55 AM 41.0 °F 35.2 °F 3.2 °F 21% 30.24 in 10.0 mi West 9.2 mph - N/A   Clear
7:15 AM 41.0 °F 35.8 °F 5.0 °F 23% 30.25 in 10.0 mi West 8.1 mph - N/A   Clear
7:35 AM 37.4 °F 31.4 °F 5.0 °F 26% 30.26 in 10.0 mi NW 8.1 mph - N/A   Clear
7:55 AM 41.0 °F 35.2 °F 5.0 °F 23% 30.26 in 10.0 mi NW 9.2 mph - N/A   Clear
8:15 AM 41.0 °F 36.4 °F 8.6 °F 26% 30.28 in 10.0 mi WNW 6.9 mph - N/A   Clear
8:35 AM 44.6 °F 43.1 °F 8.6 °F 23% 30.29 in 10.0 mi South 3.5 mph - N/A   Clear
8:55 AM 41.0 °F - 10.4 °F 29% 30.30 in 10.0 mi Calm Calm - N/A   Clear
9:15 AM 46.4 °F 44.3 °F 8.6 °F 22% 30.31 in 10.0 mi South 4.6 mph - N/A   Clear
9:35 AM 48.2 °F - 6.8 °F 19% 30.31 in 10.0 mi SSW 11.5 mph - N/A   Clear
9:55 AM 48.2 °F - 6.8 °F 19% 30.31 in 10.0 mi SSW 9.2 mph - N/A   Clear
10:15 AM 50.0 °F - 6.8 °F 17% 30.30 in 10.0 mi SSW 3.5 mph - N/A   Clear
10:35 AM 51.8 °F - 6.8 °F 16% 30.28 in 10.0 mi Calm Calm - N/A   Clear
10:55 AM 53.6 °F - 5.0 °F 14% 30.27 in 10.0 mi South 8.1 mph - N/A   Clear
11:15 AM 53.6 °F - 5.0 °F 14% 30.27 in 10.0 mi SE 3.5 mph - N/A   Clear
11:35 AM 55.4 °F - 5.0 °F 13% 30.26 in 10.0 mi SE 8.1 mph - N/A   Clear
11:55 AM 55.4 °F - 5.0 °F 13% 30.25 in 10.0 mi ESE 9.2 mph - N/A   Clear
12:15 PM 55.4 °F - 6.8 °F 14% 30.23 in 10.0 mi ESE 6.9 mph - N/A   Clear
12:35 PM 55.4 °F - 6.8 °F 14% 30.22 in 10.0 mi South 4.6 mph - N/A   Clear
12:55 PM 55.4 °F - 6.8 °F 14% 30.22 in 10.0 mi SE 8.1 mph - N/A   Clear
1:15 PM 57.2 °F - 5.0 °F 12% 30.21 in 10.0 mi NW 3.5 mph - N/A   Clear
1:35 PM 57.2 °F - 5.0 °F 12% 30.20 in 10.0 mi WSW 3.5 mph - N/A   Clear
1:55 PM 57.2 °F - 6.8 °F 13% 30.19 in 10.0 mi SW 9.2 mph - N/A   Clear
2:15 PM 57.2 °F - 5.0 °F 12% 30.19 in 10.0 mi WSW 6.9 mph 16.1 mph N/A   Clear
2:35 PM 57.2 °F - 5.0 °F 12% 30.18 in 10.0 mi Calm Calm - N/A   Clear
2:55 PM 57.2 °F - 5.0 °F 12% 30.17 in 10.0 mi WNW 3.5 mph - N/A   Clear
3:15 PM 59.0 °F - 5.0 °F 12% 30.17 in 10.0 mi West 9.2 mph - N/A   Clear
3:35 PM 59.0 °F - 5.0 °F 12% 30.17 in 10.0 mi WNW 10.4 mph - N/A   Clear
3:55 PM 57.2 °F - 6.8 °F 13% 30.16 in 10.0 mi WSW 9.2 mph - N/A   Clear
4:15 PM 57.2 °F - 6.8 °F 13% 30.16 in 10.0 mi WSW 10.4 mph 16.1 mph N/A   Clear
4:35 PM 57.2 °F - 8.6 °F 14% 30.16 in 10.0 mi SW 10.4 mph - N/A   Clear
4:55 PM 55.4 °F - 8.6 °F 15% 30.16 in 10.0 mi SW 11.5 mph - N/A   Clear
5:15 PM 53.6 °F - 8.6 °F 16% 30.16 in 10.0 mi SW 8.1 mph - N/A   Clear
5:35 PM 50.0 °F - 8.6 °F 19% 30.17 in 10.0 mi West 9.2 mph - N/A   Clear
5:55 PM 48.2 °F - 8.6 °F 20% 30.17 in 10.0 mi WSW 8.1 mph - N/A   Clear
6:15 PM 46.4 °F 42.9 °F 8.6 °F 22% 30.18 in 10.0 mi West 6.9 mph - N/A   Clear
6:35 PM 44.6 °F 39.7 °F 8.6 °F 23% 30.18 in 10.0 mi WSW 9.2 mph - N/A   Clear
7:15 PM 39.2 °F 33.0 °F 8.6 °F 28% 30.18 in 10.0 mi NW 9.2 mph - N/A   Clear
7:35 PM 35.6 °F 28.6 °F 8.6 °F 33% 30.18 in 10.0 mi NNW 9.2 mph - N/A   Clear
7:55 PM 32.0 °F 24.2 °F 6.8 °F 35% 30.19 in 10.0 mi NNW 9.2 mph - N/A   Clear
8:15 PM 32.0 °F 23.6 °F 8.6 °F 38% 30.18 in 10.0 mi NW 10.4 mph - N/A   Clear
8:35 PM 32.0 °F 23.6 °F 8.6 °F 38% 30.18 in 10.0 mi NNW 10.4 mph - N/A   Clear
8:55 PM 32.0 °F 23.6 °F 8.6 °F 38% 30.18 in 10.0 mi North 10.4 mph - N/A   Clear
9:15 PM 32.0 °F 23.6 °F 8.6 °F 38% 30.18 in 10.0 mi North 10.4 mph - N/A   Clear
9:35 PM 32.0 °F 24.2 °F 8.6 °F 38% 30.18 in 10.0 mi North 9.2 mph - N/A   Clear
9:55 PM 32.0 °F 24.2 °F 8.6 °F 38% 30.18 in 10.0 mi North 9.2 mph - N/A   Clear
10:35 PM 28.4 °F 19.1 °F 8.6 °F 43% 30.18 in 10.0 mi North 10.4 mph - N/A   Clear
10:55 PM 30.2 °F 21.9 °F 8.6 °F 40% 30.17 in 10.0 mi North 9.2 mph - N/A   Clear
11:15 PM 30.2 °F 20.8 °F 8.6 °F 40% 30.17 in 10.0 mi North 11.5 mph - N/A   Clear